OSCAR 7 (AO-7) 1 07530U 74089B 25353.78215654 -.00000037 00000+0 57709-4 0 9991 2 07530 101.9963 0.1238 0012383 113.3281 59.8649 12.53694373338037 PHASE 3B (AO-10) 1 14129U 83058B 25353.68399690 -.00000211 00000+0 00000+0 0 9992 2 14129 26.0411 249.9931 6064484 65.5730 344.6844 2.05874384291790 UOSAT 2 (UO-11) 1 14781U 84021B 25353.64252956 .00001193 00000+0 12886-3 0 9994 2 14781 97.7820 316.5640 0009125 62.9589 297.2559 14.90163027230385 LUSAT (LO-19) 1 20442U 90005G 25353.45377527 .00000106 00000+0 54738-4 0 9991 2 20442 98.8956 5.2096 0011848 18.4541 341.7071 14.34047333876631 EYESAT A (AO-27) 1 22825U 93061C 25353.64169227 .00000096 00000+0 53797-4 0 9992 2 22825 98.7137 55.9252 0007307 266.4784 93.5562 14.30879143681328 ITAMSAT (IO-26) 1 22826U 93061D 25353.11501594 .00000114 00000+0 60030-4 0 9991 2 22826 98.7086 55.2972 0007905 249.8588 110.1745 14.31300021681554 RADIO ROSTO (RS-15) 1 23439U 94085A 25353.78665181 .00000008 00000+0 14224-2 0 9999 2 23439 64.8157 233.3545 0149969 37.1870 323.9330 11.27583231275676 JAS-2 (FO-29) 1 24278U 96046B 25353.20552664 -.00000035 00000+0 11478-5 0 9990 2 24278 98.5459 221.4730 0349439 203.1787 155.3258 13.53262932448825 TECHSAT 1B (GO-32) 1 25397U 98043D 25353.23960095 .00000059 00000+0 45722-4 0 9999 2 25397 98.9925 336.6018 0001867 47.1475 312.9859 14.24378852425717 ISS (ZARYA) 1 25544U 98067A 25353.44148582 .00006778 00000+0 12809-3 0 9994 2 25544 51.6317 109.2912 0003173 271.3280 88.7345 15.49667075543890 PCSAT (NO-44) 1 26931U 01043C 25353.37197271 .00000116 00000+0 74296-4 0 9993 2 26931 67.0515 349.3269 0007420 269.6286 90.3965 14.31858315264705 SAUDISAT 1C (SO-50) 1 27607U 02058C 25353.21431345 .00001457 00000+0 19179-3 0 9994 2 27607 64.5532 325.5870 0072510 295.3542 64.0067 14.82416051237775 CUTE-1 (CO-55) 1 27844U 03031E 25353.26427094 .00000282 00000+0 14155-3 0 9994 2 27844 98.6762 359.0831 0009431 354.6775 5.4302 14.24184674166062 CUBESAT XI-IV (CO-57) 1 27848U 03031J 25353.44482588 .00000234 00000+0 12209-3 0 9992 2 27848 98.6791 359.1180 0009673 12.1508 347.9902 14.23492007165806 MOZHAETS 4 (RS-22) 1 27939U 03042A 25353.78684294 .00000936 00000+0 15402-3 0 9997 2 27939 98.3358 168.1738 0012309 114.8936 9.9735 14.72988720189132 CUBESAT XI-V 1 28895U 05043F 25353.37555023 .00001244 00000+0 20666-3 0 9995 2 28895 98.2728 140.5657 0015190 58.5337 301.7351 14.71922883 75293 CUTE-1.7+APD II (CO-65) 1 32785U 08021C 25351.68477250 .00005656 00000+0 38073-3 0 9996 2 32785 97.8081 324.8433 0007829 290.5969 69.4418 15.07103756957832 SEEDS II (CO-66) 1 32791U 08021J 25353.46349815 .00012670 00000+0 50331-3 0 9991 2 32791 97.7441 338.8410 0002130 175.3833 184.7424 15.25467941959826 YUBILEINY (RS-30) 1 32953U 08025A 25353.79268938 -.00000072 00000+0 -59028-3 0 9994 2 32953 82.5025 107.0367 0018731 345.4795 14.5745 12.43171731797400 KKS-1 (KISEKI) 1 33499U 09002H 25353.76176039 .00001202 00000+0 15673-3 0 9995 2 33499 98.1183 268.4605 0008591 143.0686 217.1119 14.82456646909604 SWISSCUBE 1 35932U 09051B 25353.68343939 .00000923 00000+0 19402-3 0 9992 2 35932 98.4147 253.3886 0007975 55.8306 304.3649 14.61975862862922 BEESAT-1 1 35933U 09051C 25353.46661450 .00000789 00000+0 16985-3 0 9993 2 35933 98.4077 253.1664 0006523 69.1003 291.0895 14.61293153862939 ITUPSAT1 1 35935U 09051E 25353.23335854 .00000723 00000+0 16060-3 0 9998 2 35935 98.4167 252.3021 0008750 77.7876 282.4303 14.60046700862476 XIWANG-1 (HOPE-1) 1 36122U 09072B 25353.80959226 -.00000279 00000+0 -61547-3 0 9996 2 36122 100.3778 305.7168 0006975 285.6880 74.3464 13.16432209769401 O/OREOS (USA 219) 1 37224U 10062C 25353.73032090 .00001990 00000+0 19846-3 0 9998 2 37224 71.9703 126.5521 0013489 41.9185 318.3015 14.92712101 89851 JUGNU 1 37839U 11058B 25353.25601456 .00000420 00000+0 79708-4 0 9992 2 37839 19.9623 321.5205 0018403 248.8454 234.0140 14.13699222733535 SRMSAT 1 37841U 11058D 25353.61177772 .00000383 00000+0 64258-4 0 9996 2 37841 19.9723 66.3596 0011928 29.0252 120.8933 14.11513672732416 STRAND-1 1 39090U 13009E 25353.77178683 .00000261 00000+0 10228-3 0 9993 2 39090 98.3821 173.4830 0009535 51.9026 308.3019 14.37010648671298 ZACUBE-1 (TSHEPISOSAT) 1 39417U 13066B 25351.39749824 .00003280 00000+0 27002-3 0 9998 2 39417 97.8056 307.9496 0042001 132.1904 228.2897 14.99124350653477 GOMX-1 1 39430U 13066Q 25353.78309471 .00001924 00000+0 29960-3 0 9996 2 39430 97.6583 200.4678 0129227 293.8261 64.9443 14.68617602643576 CUBEBUG-2 (LO-74) 1 39440U 13066AA 25351.56788106 .00003439 00000+0 33426-3 0 9992 2 39440 97.8708 295.2332 0058016 269.4523 90.0047 14.92015584649893 FUNCUBE-1 (AO-73) 1 39444U 13066AE 25353.63143087 .00005792 00000+0 39366-3 0 9992 2 39444 97.8077 316.9945 0041135 93.3798 267.2135 15.06063041652605 UWE-3 1 39446U 13066AG 25352.84474895 .00002541 00000+0 23140-3 0 9992 2 39446 97.8485 303.1990 0049937 198.9032 161.0336 14.95151860650616 UNISAT-6 1 40012U 14033C 25353.67813406 .00002157 00000+0 24358-3 0 9990 2 40012 97.7619 144.9772 0045198 300.8023 58.8748 14.86843978619470 DUCHIFAT-1 1 40021U 14033M 25353.52923209 .00027575 00000+0 66681-3 0 9993 2 40021 98.0773 26.0547 0006883 13.0381 347.1040 15.41097425627897 QB50P1 1 40025U 14033R 25353.22674194 .00006688 00000+0 36601-3 0 9991 2 40025 98.0961 347.2341 0010987 115.5687 244.6680 15.14567235625752 LILACSAT-2 1 40908U 15049K 25353.79659530 .00011203 00000+0 23986-3 0 9999 2 40908 97.4900 19.3967 0008007 170.9227 189.2168 15.44925867567992 FOX-1A (AO-85) 1 40967U 15058D 25353.52181130 .00003034 00000+0 28211-3 0 9990 2 40967 64.7754 116.8127 0134153 127.3932 233.9483 14.89714413 86795 CAS-2T & KS-1Q 1 41847U 16066G 25353.13571786 .00000878 00000+0 13397-3 0 9997 2 41847 98.4032 65.8139 0342828 315.7381 41.6850 14.44145620478801 RADFXSAT (FOX-1B) 1 43017U 17073E 25353.07726365 .00007845 00000+0 37160-3 0 9990 2 43017 97.4940 219.1298 0159297 228.4685 130.2789 15.08989957438196 DIWATA-2B 1 43678U 18084H 25353.79239534 .00002516 00000+0 21028-3 0 9998 2 43678 98.1022 177.5387 0007649 29.1118 331.0529 14.99472530389320 ES'HAIL 2 1 43700U 18090A 25353.62916108 .00000169 00000+0 00000+0 0 9997 2 43700 0.0156 30.8445 0000966 258.7498 51.1765 1.00271917 25871 FOX-1CLIFF (AO-95) 1 43770U 18099N 25353.10461186 .00010084 00000+0 44381-3 0 9998 2 43770 97.4671 49.3405 0008259 260.2802 99.7501 15.22022791385789 ITASAT 1 43786U 18099AE 25353.62791102 .00005881 00000+0 30763-3 0 9994 2 43786 97.4315 43.7960 0011934 256.7271 103.2632 15.16167324385678 JY1SAT (JO-97) 1 43803U 18099AX 25353.43435815 .00012067 00000+0 45701-3 0 9991 2 43803 97.4415 51.2298 0006419 176.9567 183.1712 15.27043751386137 UWE-4 1 43880U 18111E 25353.21927691 .00017452 00000+0 52029-3 0 9999 2 43880 97.5865 269.9239 0007271 246.6380 113.4098 15.34706356383078 TIANYAN 01 1 44881U 19093C 25353.77026737 .00001506 00000+0 17772-3 0 9992 2 44881 97.7759 65.2451 0012767 322.3918 37.6404 14.86120866324763 RS-44 & BREEZE-KM R/B 1 44909U 19096E 25353.34678896 -.00000002 00000+0 -51253-4 0 9993 2 44909 82.5214 99.2186 0217284 204.6062 154.4550 12.79746082279344 SALSAT 1 46495U 20068K 25353.48061531 .00006196 00000+0 24069-3 0 9995 2 46495 97.8779 341.1169 0009485 202.4725 157.6098 15.26432785287916 XW-3 (CAS-9) 1 50466U 21131B 25353.73205475 .00000515 00000+0 17367-3 0 9997 2 50466 98.5056 82.1188 0003074 279.2152 80.8689 14.41121386209265 GREENCUBE (IO-117) 1 53109U 22080E 25353.42421286 -.00000003 00000+0 00000+0 0 9999 2 53109 70.1591 0.7560 0009182 326.1910 33.8164 6.42583210 80513 STRATOSAT-TK 1 (RS52S) 1 57167U 23091B 25353.69939777 .00272453 00000+0 13708-2 0 9999 2 57167 97.5192 66.7671 0005392 301.1236 58.9502 15.80934704137976 UMKA 1 (RS40S) 1 57172U 23091G 25353.72851617 .00004514 00000+0 22321-3 0 9998 2 57172 97.5334 48.1632 0014202 30.7797 329.4267 15.18256867136755 CUBESX-HSE 3 (RS42S) 1 57178U 23091N 25353.76256147 .00008973 00000+0 35159-3 0 9991 2 57178 97.5368 52.5065 0012267 13.0965 347.0590 15.25950193137013 MONITOR-3 (RS58S) 1 57180U 23091Q 25353.77414337 .00007850 00000+0 33069-3 0 9993 2 57180 97.5361 51.1918 0013153 17.3443 342.8240 15.23548676136936 MONITOR-4 (RS57S) 1 57182U 23091S 25353.76327359 .00007649 00000+0 32164-3 0 9992 2 57182 97.5357 51.1422 0013181 17.8224 342.3473 15.23619683136936 MONITOR-2 (RS39S) 1 57184U 23091U 25353.74715250 .00003659 00000+0 18937-3 0 9992 2 57184 97.5360 48.1763 0012262 23.6063 336.5730 15.16803447136735 SVYATOBOR 1 (RS60S) 1 57187U 23091X 25353.78634075 .00006909 00000+0 29725-3 0 9992 2 57187 97.5367 51.8208 0010338 10.8793 349.2665 15.22905911136970 VIZARD-METEO (RS38S) 1 57189U 23091Z 25353.77180979 .00010619 00000+0 37284-3 0 9994 2 57189 97.5360 55.2680 0008130 358.9683 1.1538 15.29563346137207 NANOZOND 1 (RS49S) 1 57190U 23091AA 25353.76689630 .00046668 00000+0 71706-3 0 9993 2 57190 97.5282 63.9852 0004291 331.0295 29.0719 15.54117215137796 POLYTECH-UNIVERSE 3 (R*) 1 57191U 23091AB 25353.79639101 .00003629 00000+0 18664-3 0 9999 2 57191 97.5332 47.7380 0017138 37.5441 322.6985 15.16970288136739 UTMN 2 (RS27S) 1 57203U 23091AP 25353.75295670 .00008251 00000+0 31487-3 0 9992 2 57203 97.5359 53.9056 0008951 3.1732 356.9562 15.26887962137117 KUZGTU 1 (RS47S) 1 57217U 23091AV 25353.75025767 .00007983 00000+0 32187-3 0 9994 2 57217 97.5341 51.7653 0012473 15.9201 344.2426 15.25027948136980 SONATE-2 1 59112U 24043Q 25353.38765801 .00021337 00000+0 44678-3 0 9994 2 59112 97.5333 129.8886 0009209 138.6515 221.5432 15.45419874100009 MESAT1 1 60209U 24125G 25353.38851846 .00024860 00000+0 49732-3 0 9999 2 60209 97.2515 203.7669 0014663 153.5645 206.6356 15.46648126 81639 OOV-CUBE (TUBSAT-30) 1 60240U 24128F 25353.73874369 .00002132 00000+0 17374-3 0 9996 2 60240 61.9943 130.8202 0058296 95.6659 265.1083 15.01649208 79155 COLIBRI-S (RS67S) 1 61746U 24199M 25353.77366264 .00013840 00000+0 35367-3 0 9990 2 61746 97.3254 221.7083 0008927 201.9764 158.1100 15.39535547109737 HORS 3 (RS81S) 1 61753U 24199U 25353.81844641 .00017953 00000+0 40942-3 0 9997 2 61753 97.3224 222.3943 0006899 205.0866 155.0047 15.42938875109795 HORS 4 (RS82S) 1 61754U 24199V 25353.74537656 .00022026 00000+0 47208-3 0 9994 2 61754 97.3207 222.7649 0006961 203.3078 156.7856 15.44743301109819 HORIZON (RS59S) 1 61757U 24199Y 25353.76415898 .00044238 00000+0 67177-3 0 9998 2 61757 97.3214 224.9823 0006338 179.0591 181.0676 15.54439778109952 ARCTICSAT 1 (RS74S) 1 61762U 24199AD 25353.76728630 .00037497 00000+0 60390-3 0 9994 2 61762 97.3222 224.8228 0006641 175.8450 184.2860 15.52842392109947 SIT-2086 1 61764U 24199AF 25353.75657008 .00022177 00000+0 50269-3 0 9998 2 61764 97.3222 223.0865 0006922 194.6865 165.4183 15.43077911106671 MORDOVIA-IOT (RS50S) 1 61765U 24199AG 25353.78475191 .00114057 00000+0 88229-3 0 9999 2 61765 97.3112 227.7199 0005081 142.7799 217.3817 15.71522043106994 RUZAEVKA 390 (RS44S) 1 61766U 24199AH 25353.79553453 .00070462 00000+0 77256-3 0 9998 2 61766 97.3165 226.6528 0005058 157.0226 203.1259 15.63010578106927 HYPERVIEW 1G (RS66S) 1 61772U 24199AP 25353.78814734 .00030174 00000+0 56938-3 0 9996 2 61772 97.3203 223.3139 0008293 205.2671 154.8175 15.48384449106702 ALTAIR (RS65S) 1 61779U 24199AW 25353.79034903 .00007650 00000+0 24250-3 0 9991 2 61779 97.3257 219.5146 0012582 225.6407 134.3806 15.32917569109594 ASRTU-1 (AO-123) 1 61781U 24199AY 25353.79201108 .00007879 00000+0 25613-3 0 9994 2 61781 97.3245 219.1651 0013058 227.2599 132.7544 15.32091746106420 TUSUR GO (RS78S) 1 61782U 24199AZ 25353.76774947 .00044888 00000+0 69739-3 0 9996 2 61782 97.3170 224.0666 0007148 198.7934 161.3057 15.53800220106758 SAMSAT-IONOSPHERE (RS7*) 1 61784U 24199BB 25353.81640006 .00020157 00000+0 45291-3 0 9992 2 61784 97.3218 222.1041 0010104 213.1810 146.8805 15.43330488109777 RTU MIREA 1 (RS51S) 1 61785U 24199BC 25353.76333127 .00022246 00000+0 48004-3 0 9996 2 61785 97.3215 222.3166 0009734 210.8240 149.2438 15.44514661106632 HADES-R 1 62690U 25009CK 25353.50180803 .00139512 00000+0 16338-2 0 9995 2 62690 97.3864 76.3943 0001149 263.7674 96.3452 15.61075237 51837 TEVEL2-4 1 63213U 25052D 25353.66143486 .00012588 00000+0 47301-3 0 9996 2 63213 97.4108 245.4430 0004702 48.0549 312.1091 15.27299696 42640 TEVEL2-5 1 63214U 25052E 25353.20859303 .00013024 00000+0 49061-3 0 9990 2 63214 97.4107 244.9798 0004728 49.7232 310.4420 15.27211650 42579 TEVEL2-6 1 63215U 25052F 25353.21610082 .00012783 00000+0 48225-3 0 9993 2 63215 97.4108 244.9754 0004819 49.1083 311.0572 15.27164395 42570 TEVEL2-1 1 63217U 25052H 25352.67033598 .00014195 00000+0 54071-3 0 9990 2 63217 97.4083 244.2394 0005166 58.6972 301.4772 15.26817329 42481 TEVEL2-3 1 63218U 25052J 25353.65249480 .00012128 00000+0 46185-3 0 9990 2 63218 97.4085 245.2198 0005203 56.5864 303.5872 15.26864723 42637 TEVEL2-2 1 63219U 25052K 25353.19539921 .00013194 00000+0 50263-3 0 9998 2 63219 97.4084 244.7608 0005156 58.0109 302.1631 15.26832185 42560 TEVEL2-9 1 63237U 25052AD 25353.16480731 .00012752 00000+0 50799-3 0 9992 2 63237 97.4146 244.4275 0009185 64.2665 295.9520 15.25322962 42526 TEVEL2-7 1 63238U 25052AE 25353.63862220 .00011104 00000+0 44475-3 0 9996 2 63238 97.4148 244.8700 0009277 63.0195 297.1989 15.25177809 42591 TEVEL2-8 1 63239U 25052AF 25353.44754769 .00011990 00000+0 48035-3 0 9993 2 63239 97.4150 244.6651 0009268 63.6438 296.5750 15.25147399 42561 HADES-ICM 1 63492U 25052BN 25351.96064983 .00050303 00000+0 12519-2 0 9999 2 63492 97.4082 245.5345 0011624 61.2981 298.9432 15.40039410 42500 INNOSAT 16 (RS92S7) 1 64878U 25155C 25353.58539741 .00003325 00000+0 14492-3 0 9996 2 64878 97.4339 316.8845 0013082 96.3803 263.8924 15.22810714 53315 GEOSCAN 6 (RS92S6) 1 64879U 25155D 25353.62793577 .00007922 00000+0 31352-3 0 9992 2 64879 97.4341 317.3037 0010763 91.3627 268.8844 15.25667256 53343 GEOSCAN 1 (RS92S1) 1 64880U 25155E 25353.61646215 .00008620 00000+0 33808-3 0 9993 2 64880 97.4342 317.3248 0010699 91.8142 268.4322 15.25939732 53343 239ALFEROV (RS61S) 1 64881U 25155F 25353.63948616 .00010849 00000+0 41330-3 0 9991 2 64881 97.4352 317.4679 0010520 91.5587 268.6857 15.26844387 53355 GEOSCAN 2 (RS92S2) 1 64890U 25155Q 25353.77627139 .00008784 00000+0 34110-3 0 9993 2 64890 97.4341 317.5578 0009959 81.1352 279.1013 15.26272388 53370 GEOSCAN 5 (RS92S5) 1 64891U 25155R 25353.73329463 .00010416 00000+0 39283-3 0 9990 2 64891 97.4344 317.6254 0009204 95.8944 264.3344 15.27202089 53373 GEOSCAN 4 (RS92S4) 1 64892U 25155S 25353.73006924 .00010671 00000+0 40148-3 0 9990 2 64892 97.4346 317.6334 0009224 96.5143 263.7147 15.27273000 53371 GEOSCAN 3 (RS92S3) 1 64893U 25155T 25353.76197500 .00011957 00000+0 43909-3 0 9991 2 64893 97.4342 317.7371 0009102 97.9780 262.2492 15.28044777 53383 INNOSAT 3 (RS92S0) 1 64894U 25155U 25353.72817580 .00019526 00000+0 65998-3 0 9997 2 64894 97.4326 317.9221 0009037 98.4417 261.7849 15.30646095 53397